Flag for U.S.A. Weather past 2 weeks in Coeur d'Alene, Idaho, U.S.A.

21 °F


Feels Like: 13 °F
Forecast: 18 / 35 °F
Wind: 7 mph from Northeast

Location: Coeur d'Alene Weather Reporting System

Current Time: Nov 26, 2015 at 1:55:39 AM

Latest Report: Nov 26, 2015 at 1:15 AM

Visibility: 10 mi

Pressure: 30.35 "Hg (27.91 "Hg at 655m altitude)

Humidity: 68%

Dew point: 12 °F

Location of Coeur d'AleneLocation

Historic Weather in Coeur d'Alene — Graph


Coeur d'Alene temperature yesterday

Maximum temperature yesterday: 34 °F (at 12:55 PM)
Minimum temperature yesterday: 21 °F (at 8:35 PM)
Average temperature yesterday: 27 °F

Past Weeks' High & Low Weather Summary

High55 °F (Nov 13, 2:55 PM)93% (Nov 12, 5:15 AM)30.53 "Hg (Nov 12, 5:15 AM)
Low19 °F (Nov 21, 2:15 AM)11% (Nov 23, 1:35 PM)29.36 "Hg (Nov 17, 4:55 PM)
Average36 °F72%30.01 "Hg
* Reported Nov 11 12:15 AM — Nov 26 12:35 AM, Coeur d'Alene, Weather by CustomWeather, © 2015

Note: Actual official high and low records may vary slightly from our data, if they occured in-between our weather recording intervals... More about our weather records


Coeur d'Alene weather history for previous 24 hours

Time TempWeatherWind HumidityBarometerVisibility
12:35 AM
Thu, Nov 26
23 °FClear.14 mph68%30.34 "Hg10 mi
12:15 AM23 °FClear.12 mph74%30.34 "Hg10 mi
11:55 PM
Wed, Nov 25
21 °FClear.9 mph68%30.33 "Hg10 mi
11:35 PM21 °FClear.9 mph68%30.33 "Hg10 mi
11:15 PM23 °FClear.9 mph63%30.33 "Hg10 mi
10:35 PM25 °FClear.10 mph63%30.33 "Hg10 mi
10:15 PM25 °FClear.10 mph63%30.33 "Hg10 mi
9:55 PM25 °FClear.7 mph59%30.32 "Hg10 mi
9:35 PM25 °FClear.6 mph59%30.32 "Hg10 mi
8:55 PM21 °FClear.No wind63%30.31 "Hg10 mi
8:35 PM21 °FClear.No wind63%30.30 "Hg10 mi
7:55 PM25 °FClear.10 mph59%30.28 "Hg10 mi
7:15 PM27 °FClear.8 mph54%30.27 "Hg10 mi
6:55 PM27 °FClear.5 mph50%30.26 "Hg10 mi
6:35 PM27 °FClear.10 mph50%30.26 "Hg10 mi
6:15 PM27 °FClear.12 mph50%30.26 "Hg10 mi
5:55 PM28 °FClear.13 mph47%30.25 "Hg10 mi
5:35 PM28 °FClear.16 mph47%30.25 "Hg10 mi
5:15 PM28 °FClear.18 mph47%30.23 "Hg10 mi
4:35 PM28 °FClear.15 mph47%30.22 "Hg10 mi
4:15 PM30 °FClear.10 mph43%30.21 "Hg10 mi
3:55 PM30 °FSunny.16 mph43%30.21 "Hg10 mi
3:35 PM32 °FSunny.22 mph40%30.20 "Hg10 mi
2:55 PM34 °FSunny.18 mph41%30.20 "Hg10 mi
2:35 PM34 °FSunny.20 mph44%30.19 "Hg10 mi
2:15 PM34 °FSunny.18 mph48%30.18 "Hg10 mi
1:55 PM34 °FSunny.22 mph48%30.18 "Hg10 mi
1:35 PM34 °FSunny.18 mph48%30.18 "Hg10 mi
12:55 PM34 °FSunny.23 mph44%30.18 "Hg10 mi
12:35 PMN/ASunny.20 mphN/A30.18 "Hg10 mi
12:15 PM32 °FSunny.22 mph51%30.19 "Hg10 mi
11:55 AMN/ASunny.21 mphN/A30.18 "Hg10 mi
11:35 AM32 °FSunny.22 mph47%30.18 "Hg10 mi
11:15 AM30 °FSunny.21 mph51%30.19 "Hg10 mi
10:55 AM30 °FSunny.23 mph51%30.19 "Hg10 mi
10:35 AM30 °FSunny.18 mph51%30.19 "Hg10 mi
10:15 AM30 °FSunny.17 mph51%30.19 "Hg10 mi
9:55 AM28 °FSunny.18 mph51%30.19 "Hg10 mi
9:35 AM28 °FSunny.20 mph55%30.18 "Hg10 mi
9:15 AM28 °FSunny.15 mph51%30.18 "Hg10 mi
8:55 AM27 °FSunny.15 mph54%30.18 "Hg10 mi
8:35 AM27 °FSunny.16 mph54%30.18 "Hg10 mi
8:15 AM25 °FSunny.14 mph54%30.17 "Hg10 mi
7:55 AM25 °FSunny.14 mph59%30.16 "Hg10 mi
7:35 AM25 °FSunny.16 mph54%30.16 "Hg10 mi
7:15 AM23 °FSunny.12 mph58%30.15 "Hg10 mi
6:55 AM25 °FClear.13 mph54%30.14 "Hg10 mi
6:35 AM25 °FClear.14 mph54%30.14 "Hg10 mi
6:15 AM25 °FClear.17 mph54%30.13 "Hg10 mi
5:55 AM25 °FClear.17 mph54%30.12 "Hg10 mi
5:35 AMN/AClear.23 mphN/A30.11 "Hg10 mi
5:15 AM25 °FClear.21 mph59%30.10 "Hg10 mi
4:55 AM25 °FClear.20 mph59%30.09 "Hg10 mi
4:35 AM25 °FClear.20 mph59%30.08 "Hg10 mi
4:15 AM25 °FClear.16 mph59%30.07 "Hg10 mi
3:55 AM25 °FClear.13 mph59%30.07 "Hg10 mi
3:35 AM25 °FClear.16 mph59%30.06 "Hg10 mi
3:15 AM25 °FClear.18 mph59%30.06 "Hg10 mi
2:55 AM25 °FClear.17 mph59%30.06 "Hg10 mi
2:35 AM25 °FClear.15 mph59%30.05 "Hg10 mi
2:15 AM27 °FClear.20 mph59%30.04 "Hg10 mi
1:55 AM27 °FClear.20 mph59%30.04 "Hg10 mi
1:35 AM27 °FClear.21 mph59%30.03 "Hg10 mi
1:15 AM27 °FClear.21 mph64%30.02 "Hg10 mi
Weather by CustomWeather, © 2015

See weather overviewHow to use our weather pages